26-12-2023, 00:00:08,    224,    2.8,    6.9,   0.00,   0.00, 1006.0,    0.1, -999.0
26-12-2023, 00:00:18,    223,    1.9,    6.9,   0.00,   0.00, 1006.0,    0.9, -999.0
26-12-2023, 00:00:28,    218,    2.3,    6.9,   0.00,   0.00, 1006.0,    0.8, -999.0
26-12-2023, 00:00:38,    234,    1.9,    6.9,   0.00,   0.00, 1006.0,    0.3, -999.0
26-12-2023, 00:00:48,    237,    2.2,    6.8,   0.00,   0.00, 1006.0,    0.6, -999.0
26-12-2023, 00:00:58,    227,    4.1,    6.9,   0.00,   0.00, 1006.1,    0.6, -999.0
26-12-2023, 00:01:08,    248,    3.3,    6.9,   0.00,   0.00, 1006.1,    0.5, -999.0
26-12-2023, 00:01:18,    256,    2.0,    6.9,   0.00,   0.00, 1006.1,    0.8, -999.0
26-12-2023, 00:01:28,    250,    2.2,    6.9,   0.00,   0.00, 1006.1,    0.4, -999.0
26-12-2023, 00:01:38,    259,    2.5,    6.8,   0.00,   0.00, 1006.1,    0.5, -999.0
26-12-2023, 00:01:48,    253,    2.4,    6.9,   0.00,   0.00, 1006.1,    1.0, -999.0
26-12-2023, 00:01:58,    249,    1.9,    6.9,   0.00,   0.00, 1006.1,    0.2, -999.0
26-12-2023, 00:02:07,    249,    0.7,    6.8,   0.00,   0.00, 1006.0,    0.3, -999.0
26-12-2023, 00:02:18,    232,    1.7,    6.8,   0.00,   0.00, 1006.1,    0.6, -999.0
26-12-2023, 00:02:28,    232,    0.6,    6.8,   0.00,   0.00, 1006.1,    0.5, -999.0
26-12-2023, 00:02:38,    231,    0.4,    6.9,   0.00,   0.00, 1006.1,    0.6, -999.0
26-12-2023, 00:02:47,    231,    0.7,    6.9,   0.00,   0.00, 1006.0,    0.7, -999.0
26-12-2023, 00:02:58,    231,    0.1,    6.8,   0.00,   0.00, 1006.0,    0.9, -999.0
26-12-2023, 00:03:08,    231,    0.5,    6.8,   0.00,   0.00, 1006.1,    0.3, -999.0
26-12-2023, 00:03:17,    233,    1.0,    6.8,   0.00,   0.00, 1006.1,    0.4, -999.0
26-12-2023, 00:03:27,    233,    1.2,    6.9,   0.00,   0.00, 1006.1,    0.3, -999.0
26-12-2023, 00:03:38,    234,    1.8,    6.9,   0.00,   0.00, 1006.1,    0.5, -999.0
26-12-2023, 00:03:47,    234,    1.8,    6.8,   0.00,   0.00, 1006.1,    0.6, -999.0
26-12-2023, 00:03:57,    234,    0.9,    6.7,   0.00,   0.00, 1006.1,    0.8, -999.0
26-12-2023, 00:04:07,    230,    2.1,    6.8,   0.00,   0.00, 1006.1,    0.5, -999.0
26-12-2023, 00:04:17,    227,    2.2,    6.9,   0.00,   0.00, 1006.1,    1.2, -999.0
26-12-2023, 00:04:27,    226,    0.3,    6.8,   0.00,   0.00, 1006.0,    0.4, -999.0
26-12-2023, 00:04:37,    228,    2.0,    6.8,   0.00,   0.00, 1006.1,    0.7, -999.0
26-12-2023, 00:04:48,    228,    1.4,    6.9,   0.00,   0.00, 1006.1,    0.8, -999.0
26-12-2023, 00:04:57,    229,    1.0,    6.8,   0.00,   0.00, 1006.1,    0.6, -999.0
26-12-2023, 00:05:07,    229,    0.0,    6.8,   0.00,   0.00, 1005.9,    0.4, -999.0
26-12-2023, 00:05:17,    229,    0.7,    6.7,   0.00,   0.00, 1006.1,    0.6, -999.0
26-12-2023, 00:05:27,    229,    0.8,    6.9,   0.00,   0.00, 1006.1,    0.8, -999.0
26-12-2023, 00:05:37,    229,    1.3,    6.9,   0.00,   0.00, 1006.1,    0.6, -999.0
26-12-2023, 00:05:47,    232,    1.1,    6.9,   0.00,   0.00, 1006.1,    0.5, -999.0
26-12-2023, 00:05:57,    261,    2.2,    6.9,   0.00,   0.00, 1006.1,    0.6, -999.0
26-12-2023, 00:06:07,    242,    3.5,    6.9,   0.00,   0.00, 1006.1,    0.5, -999.0
26-12-2023, 00:06:17,    240,    2.2,    6.7,   0.00,   0.00, 1006.1,    0.5, -999.0
26-12-2023, 00:06:27,    240,    0.5,    6.8,   0.00,   0.00, 1006.0,    0.7, -999.0
26-12-2023, 00:06:37,    226,    2.3,    6.9,   0.00,   0.00, 1006.1,    0.4, -999.0
26-12-2023, 00:06:47,    228,    1.3,    6.9,   0.00,   0.00, 1006.1,    0.5, -999.0
26-12-2023, 00:06:57,    232,    1.0,    6.9,   0.00,   0.00, 1006.1,    0.5, -999.0
26-12-2023, 00:07:07,    232,    0.9,    6.8,   0.00,   0.00, 1006.1,    0.6, -999.0
26-12-2023, 00:07:17,    233,    0.9,    6.8,   0.00,   0.00, 1006.0,    0.3, -999.0
26-12-2023, 00:07:27,    232,    1.1,    6.8,   0.00,   0.00, 1006.1,    0.6, -999.0
26-12-2023, 00:07:37,    230,    1.8,    6.8,   0.00,   0.00, 1006.1,    0.5, -999.0
26-12-2023, 00:07:47,    234,    1.2,    6.9,   0.00,   0.00, 1006.1,    0.6, -999.0
26-12-2023, 00:07:57,    234,    1.8,    6.8,   0.00,   0.00, 1006.1,    0.4, -999.0
26-12-2023, 00:08:07,    233,    0.5,    6.8,   0.00,   0.00, 1006.1,    0.4, -999.0
26-12-2023, 00:08:17,    231,    1.0,    6.8,   0.00,   0.00, 1006.1,    0.5, -999.0
26-12-2023, 00:08:27,    230,    1.2,    6.8,   0.00,   0.00, 1006.1,    0.6, -999.0
26-12-2023, 00:08:37,    233,    2.8,    6.8,   0.00,   0.00, 1006.1,    0.5, -999.0
26-12-2023, 00:08:47,    245,    2.9,    6.8,   0.00,   0.00, 1006.1,    0.5, -999.0
26-12-2023, 00:08:57,    218,    1.7,    6.8,   0.00,   0.00, 1006.1,    0.3, -999.0
26-12-2023, 00:09:07,    219,    0.7,    6.8,   0.00,   0.00, 1006.0,    0.5, -999.0
26-12-2023, 00:09:17,    252,    1.9,    6.8,   0.00,   0.00, 1006.1,    0.7, -999.0
26-12-2023, 00:09:27,    252,    1.0,    6.8,   0.00,   0.00, 1006.1,    0.4, -999.0
26-12-2023, 00:09:37,    251,    0.9,    6.8,   0.00,   0.00, 1006.1,    0.5, -999.0
26-12-2023, 00:09:47,    251,    0.1,    6.8,   0.00,   0.00, 1006.0,    0.5, -999.0
26-12-2023, 00:09:57,    251,    0.2,    6.6,   0.00,   0.00, 1006.0,    0.5, -999.0
26-12-2023, 00:10:07,    251,    0.6,    6.8,   0.00,   0.00, 1006.1,    0.6, -999.0
26-12-2023, 00:10:16,    249,    0.5,    6.8,   0.00,   0.00, 1006.0,    0.5, -999.0
26-12-2023, 00:10:27,    218,    1.1,    6.7,   0.00,   0.00, 1006.0,    0.3, -999.0
26-12-2023, 00:10:37,    219,    1.4,    6.8,   0.00,   0.00, 1006.0,    0.3, -999.0
26-12-2023, 00:10:46,    231,    1.3,    6.8,   0.00,   0.00, 1006.1,    0.6, -999.0
26-12-2023, 00:10:56,    228,    3.3,    6.8,   0.00,   0.00, 1006.0,    0.0, -999.0
26-12-2023, 00:11:07,    234,    1.8,    6.8,   0.00,   0.00, 1006.1,    0.2, -999.0
26-12-2023, 00:11:16,    212,    1.6,    6.8,   0.00,   0.00, 1006.1,    0.9, -999.0
26-12-2023, 00:11:26,    213,    1.2,    6.8,   0.00,   0.00, 1006.1,    0.8, -999.0
26-12-2023, 00:11:37,    230,    2.5,    6.8,   0.00,   0.00, 1006.0,    0.0, -999.0
26-12-2023, 00:11:47,    211,    1.4,    6.8,   0.00,   0.00, 1006.0,    0.0, -999.0
26-12-2023, 00:11:56,    276,    3.1,    6.8,   0.00,   0.00, 1006.1,    0.0, -999.0
26-12-2023, 00:12:06,    251,    1.3,    6.8,   0.00,   0.00, 1006.1,    0.0, -999.0
26-12-2023, 00:12:17,    253,    1.5,    6.8,   0.00,   0.00, 1006.1,    0.2, -999.0
26-12-2023, 00:12:26,    251,    0.6,    6.8,   0.00,   0.00, 1006.0,    1.0, -999.0
26-12-2023, 00:12:36,    251,    0.1,    6.8,   0.00,   0.00, 1005.9,    0.5, -999.0
26-12-2023, 00:12:46,    251,    0.0,    6.7,   0.00,   0.00, 1005.9,    0.4, -999.0
26-12-2023, 00:12:56,    251,    0.4,    6.7,   0.00,   0.00, 1005.9,    0.3, -999.0
26-12-2023, 00:13:06,    220,    2.2,    6.8,   0.00,   0.00, 1006.0,    0.2, -999.0
26-12-2023, 00:13:16,    222,    2.4,    6.8,   0.00,   0.00, 1006.0,    0.1, -999.0
26-12-2023, 00:13:26,    226,    1.8,    6.8,   0.00,   0.00, 1006.1,    0.8, -999.0
26-12-2023, 00:13:36,    226,    1.2,    6.8,   0.00,   0.00, 1006.0,    0.6, -999.0
26-12-2023, 00:13:46,    227,    0.4,    6.7,   0.00,   0.00, 1006.0,    0.2, -999.0
26-12-2023, 00:13:56,    235,    4.4,    6.8,   0.00,   0.00, 1006.0,    0.5, -999.0
26-12-2023, 00:14:06,    233,    1.3,    6.8,   0.00,   0.00, 1006.1,    0.4, -999.0
26-12-2023, 00:14:16,    235,    0.6,    6.7,   0.00,   0.00, 1006.0,    0.3, -999.0
26-12-2023, 00:14:26,    235,    0.6,    6.7,   0.00,   0.00, 1006.0,    0.6, -999.0
26-12-2023, 00:14:36,    230,    0.4,    6.7,   0.00,   0.00, 1006.0,    0.7, -999.0
26-12-2023, 00:14:46,    199,    2.5,    6.7,   0.00,   0.00, 1006.0,    0.3, -999.0
26-12-2023, 00:14:56,    228,    1.4,    6.8,   0.00,   0.00, 1006.0,    0.6, -999.0
26-12-2023, 00:15:06,    272,    2.0,    6.8,   0.00,   0.00, 1006.0,    0.3, -999.0
26-12-2023, 00:15:16,    272,    0.8,    6.8,   0.00,   0.00, 1006.0,    0.6, -999.0
26-12-2023, 00:15:26,    233,    0.3,    6.7,   0.00,   0.00, 1006.0,    0.4, -999.0
26-12-2023, 00:15:36,    239,    2.0,    6.8,   0.00,   0.00, 1006.1,    0.4, -999.0
26-12-2023, 00:15:46,    251,    3.0,    6.8,   0.00,   0.00, 1006.0,    0.4, -999.0
26-12-2023, 00:15:56,    251,    0.6,    6.7,   0.00,   0.00, 1006.0,    0.5, -999.0
26-12-2023, 00:16:06,    249,    1.9,    6.7,   0.00,   0.00, 1006.0,    0.4, -999.0
26-12-2023, 00:16:16,    252,    1.9,    6.7,   0.00,   0.00, 1006.1,    0.5, -999.0
26-12-2023, 00:16:26,    229,    1.5,    6.7,   0.00,   0.00, 1006.1,    0.3, -999.0
26-12-2023, 00:16:36,    225,    2.3,    6.7,   0.00,   0.00, 1006.1,    0.4, -999.0
26-12-2023, 00:16:46,    225,    1.3,    6.7,   0.00,   0.00, 1006.1,    0.3, -999.0
26-12-2023, 00:16:56,    225,    1.0,    6.7,   0.00,   0.00, 1006.1,    0.3, -999.0
26-12-2023, 00:17:06,    225,    0.2,    6.7,   0.00,   0.00, 1005.9,    0.1, -999.0
26-12-2023, 00:17:16,    225,    0.0,    6.7,   0.00,   0.00, 1006.0,    0.0, -999.0
26-12-2023, 00:17:26,    233,    1.6,    6.7,   0.00,   0.00, 1006.1,    0.5, -999.0
26-12-2023, 00:17:36,    232,    1.6,    6.7,   0.00,   0.00, 1006.1,    0.5, -999.0
26-12-2023, 00:17:46,    246,    1.9,    6.7,   0.00,   0.00, 1006.1,    0.5, -999.0
26-12-2023, 00:17:55,    246,    1.2,    6.7,   0.00,   0.00, 1006.1,    0.4, -999.0
26-12-2023, 00:18:06,    242,    3.6,    6.7,   0.00,   0.00, 1006.1,    0.4, -999.0
26-12-2023, 00:18:16,    243,    3.3,    6.7,   0.00,   0.00, 1006.1,    0.8, -999.0
26-12-2023, 00:18:25,    243,    1.5,    6.7,   0.00,   0.00, 1006.1,    0.4, -999.0
26-12-2023, 00:18:36,    239,    0.7,    6.6,   0.00,   0.00, 1006.1,    0.4, -999.0
26-12-2023, 00:18:46,    231,    2.5,    6.6,   0.00,   0.00, 1006.1,    0.6, -999.0
26-12-2023, 00:18:55,    231,    0.5,    6.7,   0.00,   0.00, 1006.0,    0.5, -999.0
26-12-2023, 00:19:05,    218,    1.5,    6.7,   0.00,   0.00, 1006.1,    0.5, -999.0
26-12-2023, 00:19:16,    217,    1.0,    6.8,   0.00,   0.00, 1006.1,    0.5, -999.0
26-12-2023, 00:19:26,    217,    1.6,    6.7,   0.00,   0.00, 1006.1,    0.6, -999.0
26-12-2023, 00:19:35,    218,    1.6,    6.7,   0.00,   0.00, 1006.1,    0.5, -999.0
26-12-2023, 00:19:45,    218,    1.7,    6.7,   0.00,   0.00, 1006.1,    0.8, -999.0
26-12-2023, 00:19:56,    218,    1.2,    6.7,   0.00,   0.00, 1006.1,    0.4, -999.0
26-12-2023, 00:20:05,    218,    0.6,    6.7,   0.00,   0.00, 1006.0,    0.8, -999.0
26-12-2023, 00:20:15,    219,    0.4,    6.7,   0.00,   0.00, 1006.1,    0.4, -999.0
26-12-2023, 00:20:25,    218,    0.0,    6.6,   0.00,   0.00, 1005.9,    0.3, -999.0
26-12-2023, 00:20:35,    219,    0.9,    6.6,   0.00,   0.00, 1006.1,    0.6, -999.0
26-12-2023, 00:20:45,    219,    0.2,    6.6,   0.00,   0.00, 1006.0,    0.4, -999.0
26-12-2023, 00:20:55,    222,    1.7,    6.7,   0.00,   0.00, 1006.1,    0.7, -999.0
26-12-2023, 00:21:05,    222,    1.8,    6.7,   0.00,   0.00, 1006.1,    0.5, -999.0
26-12-2023, 00:21:15,    223,    1.8,    6.7,   0.00,   0.00, 1006.2,    0.6, -999.0
26-12-2023, 00:21:25,    223,    1.6,    6.6,   0.00,   0.00, 1006.2,    0.4, -999.0
26-12-2023, 00:21:35,    223,    0.5,    6.6,   0.00,   0.00, 1006.1,    0.3, -999.0
26-12-2023, 00:21:45,    223,    1.1,    6.7,   0.00,   0.00, 1006.1,    0.4, -999.0
26-12-2023, 00:21:55,    224,    1.1,    6.7,   0.00,   0.00, 1006.2,    0.5, -999.0
26-12-2023, 00:22:05,    258,    2.8,    6.6,   0.00,   0.00, 1006.2,    0.5, -999.0
26-12-2023, 00:22:15,    258,    4.0,    6.6,   0.00,   0.00, 1006.1,    0.4, -999.0
26-12-2023, 00:22:25,    243,    1.4,    6.7,   0.00,   0.00, 1006.2,    0.6, -999.0
26-12-2023, 00:22:35,    239,    0.8,    6.6,   0.00,   0.00, 1006.2,    0.6, -999.0
26-12-2023, 00:22:45,    239,    0.4,    6.7,   0.00,   0.00, 1006.1,    0.4, -999.0
26-12-2023, 00:22:55,    239,    0.0,    6.6,   0.00,   0.00, 1006.0,    0.2, -999.0
26-12-2023, 00:23:05,    250,    1.6,    6.7,   0.00,   0.00, 1006.2,    0.8, -999.0
26-12-2023, 00:23:15,    249,    1.6,    6.7,   0.00,   0.00, 1006.1,    0.5, -999.0
26-12-2023, 00:23:25,    231,    1.7,    6.7,   0.00,   0.00, 1006.2,    0.4, -999.0
26-12-2023, 00:23:35,    223,    2.4,    6.6,   0.00,   0.00, 1006.1,    0.5, -999.0
26-12-2023, 00:23:45,    244,    1.7,    6.7,   0.00,   0.00, 1006.2,    0.5, -999.0
26-12-2023, 00:23:55,    234,    2.5,    6.6,   0.00,   0.00, 1006.2,    0.4, -999.0
26-12-2023, 00:24:05,    244,    3.0,    6.7,   0.00,   0.00, 1006.2,    0.3, -999.0
26-12-2023, 00:24:15,    256,    3.2,    6.6,   0.00,   0.00, 1006.2,    0.7, -999.0
26-12-2023, 00:24:25,    245,    2.7,    6.6,   0.00,   0.00, 1006.2,    0.3, -999.0
26-12-2023, 00:24:35,    228,    1.8,    6.6,   0.00,   0.00, 1006.2,    0.3, -999.0
26-12-2023, 00:24:45,    245,    1.7,    6.6,   0.00,   0.00, 1006.2,    0.9, -999.0
26-12-2023, 00:24:55,    230,    2.2,    6.7,   0.00,   0.00, 1006.2,    0.7, -999.0
26-12-2023, 00:25:05,    230,    1.7,    6.7,   0.00,   0.00, 1006.2,    0.4, -999.0
26-12-2023, 00:25:15,    227,    2.7,    6.7,   0.00,   0.00, 1006.2,    0.6, -999.0
26-12-2023, 00:25:25,    226,    1.5,    6.7,   0.00,   0.00, 1006.2,    0.4, -999.0
26-12-2023, 00:25:35,    255,    2.0,    6.7,   0.00,   0.00, 1006.2,    0.5, -999.0
26-12-2023, 00:25:45,    253,    2.8,    6.7,   0.00,   0.00, 1006.2,    0.4, -999.0
26-12-2023, 00:25:55,    253,    2.2,    6.7,   0.00,   0.00, 1006.2,    0.5, -999.0
26-12-2023, 00:26:04,    235,    3.7,    6.7,   0.00,   0.00, 1006.2,    0.4, -999.0
26-12-2023, 00:26:15,    213,    4.3,    6.6,   0.00,   0.00, 1006.2,    0.6, -999.0
26-12-2023, 00:26:25,    244,    2.1,    6.6,   0.00,   0.00, 1006.2,    0.5, -999.0
26-12-2023, 00:26:34,    236,    1.5,    6.7,   0.00,   0.00, 1006.2,    0.5, -999.0
26-12-2023, 00:26:44,    234,    1.2,    6.7,   0.00,   0.00, 1006.2,    0.5, -999.0
26-12-2023, 00:26:55,    234,    0.5,    6.6,   0.00,   0.00, 1006.1,    0.4, -999.0
26-12-2023, 00:27:05,    235,    0.9,    6.6,   0.00,   0.00, 1006.1,    0.7, -999.0
26-12-2023, 00:27:14,    235,    0.9,    6.7,   0.00,   0.00, 1006.2,    0.5, -999.0
26-12-2023, 00:27:24,    255,    2.4,    6.7,   0.00,   0.00, 1006.2,    0.4, -999.0
26-12-2023, 00:27:35,    251,    1.8,    6.7,   0.00,   0.00, 1006.1,    0.4, -999.0
26-12-2023, 00:27:44,    250,    1.9,    6.7,   0.00,   0.00, 1006.2,    0.5, -999.0
26-12-2023, 00:27:54,    230,    2.6,    6.6,   0.00,   0.00, 1006.2,    0.7, -999.0
26-12-2023, 00:28:04,    226,    2.3,    6.5,   0.00,   0.00, 1006.2,    0.4, -999.0
26-12-2023, 00:28:14,    225,    1.5,    6.6,   0.00,   0.00, 1006.2,    0.4, -999.0
26-12-2023, 00:28:24,    227,    0.3,    6.6,   0.00,   0.00, 1006.2,    0.4, -999.0
26-12-2023, 00:28:34,    257,    2.4,    6.6,   0.00,   0.00, 1006.2,    0.8, -999.0
26-12-2023, 00:28:45,    244,    3.0,    6.6,   0.00,   0.00, 1006.2,    0.4, -999.0
26-12-2023, 00:28:54,    241,    0.6,    6.6,   0.00,   0.00, 1006.3,    0.5, -999.0
26-12-2023, 00:29:04,    237,    2.3,    6.5,   0.00,   0.00, 1006.3,    0.3, -999.0
26-12-2023, 00:29:14,    237,    1.2,    6.6,   0.00,   0.00, 1006.2,    0.6, -999.0
26-12-2023, 00:29:24,    253,    0.2,    6.6,   0.00,   0.00, 1006.1,    0.4, -999.0
26-12-2023, 00:29:34,    239,    1.2,    6.6,   0.00,   0.00, 1006.2,    0.6, -999.0
26-12-2023, 00:29:44,    239,    0.8,    6.6,   0.00,   0.00, 1006.2,    0.6, -999.0
26-12-2023, 00:29:54,    239,    0.5,    6.6,   0.00,   0.00, 1006.2,    0.5, -999.0
26-12-2023, 00:30:04,    239,    0.1,    6.5,   0.00,   0.00, 1006.1,    0.4, -999.0
26-12-2023, 00:30:14,    281,    2.9,    6.6,   0.00,   0.00, 1006.3,    0.5, -999.0
26-12-2023, 00:30:24,    260,    2.6,    6.6,   0.00,   0.00, 1006.3,    0.4, -999.0
26-12-2023, 00:30:34,    221,    1.6,    6.6,   0.00,   0.00, 1006.3,    0.6, -999.0
26-12-2023, 00:30:44,    256,    2.6,    6.6,   0.00,   0.00, 1006.2,    0.8, -999.0
26-12-2023, 00:30:54,    237,    2.7,    6.6,   0.00,   0.00, 1006.3,    0.4, -999.0
26-12-2023, 00:31:04,    257,    4.4,    6.5,   0.00,   0.00, 1006.2,    0.4, -999.0
26-12-2023, 00:31:14,    239,    4.0,    6.6,   0.00,   0.00, 1006.3,    0.4, -999.0
26-12-2023, 00:31:24,    234,    2.1,    6.5,   0.00,   0.00, 1006.3,    0.5, -999.0
26-12-2023, 00:31:34,    248,    2.4,    6.5,   0.00,   0.00, 1006.3,    0.3, -999.0
26-12-2023, 00:31:44,    210,    3.0,    6.4,   0.00,   0.00, 1006.3,    0.7, -999.0
26-12-2023, 00:31:54,    218,    2.5,    6.6,   0.00,   0.00, 1006.3,    0.5, -999.0
26-12-2023, 00:32:04,    218,    1.8,    6.6,   0.00,   0.00, 1006.3,    0.4, -999.0
26-12-2023, 00:32:14,    219,    0.7,    6.6,   0.00,   0.00, 1006.3,    0.4, -999.0
26-12-2023, 00:32:24,    244,    1.6,    6.6,   0.00,   0.00, 1006.3,    0.5, -999.0
26-12-2023, 00:32:34,    244,    2.0,    6.6,   0.00,   0.00, 1006.3,    0.5, -999.0
26-12-2023, 00:32:44,    242,    2.2,    6.6,   0.00,   0.00, 1006.3,    0.6, -999.0
26-12-2023, 00:32:54,    219,    1.9,    6.6,   0.00,   0.00, 1006.3,    0.7, -999.0
26-12-2023, 00:33:04,    219,    2.1,    6.7,   0.00,   0.00, 1006.3,    0.7, -999.0
26-12-2023, 00:33:14,    220,    1.1,    6.6,   0.00,   0.00, 1006.2,    0.6, -999.0
26-12-2023, 00:33:24,    220,    0.5,    6.6,   0.00,   0.00, 1006.2,    0.7, -999.0
26-12-2023, 00:33:34,    210,    0.7,    6.6,   0.00,   0.00, 1006.2,    0.4, -999.0
26-12-2023, 00:33:43,    210,    0.0,    6.5,   0.00,   0.00, 1006.1,    0.5, -999.0
26-12-2023, 00:33:54,    210,    0.0,    6.6,   0.00,   0.00, 1006.1,    0.3, -999.0
26-12-2023, 00:34:04,    219,    1.5,    6.6,   0.00,   0.00, 1006.2,    0.4, -999.0
26-12-2023, 00:34:13,    233,    0.8,    6.6,   0.00,   0.00, 1006.3,    0.5, -999.0
26-12-2023, 00:34:24,    230,    1.1,    6.5,   0.00,   0.00, 1006.3,    0.7, -999.0
26-12-2023, 00:34:34,    230,    1.7,    6.6,   0.00,   0.00, 1006.3,    0.4, -999.0
26-12-2023, 00:34:43,    207,    2.0,    6.6,   0.00,   0.00, 1006.3,    0.6, -999.0
26-12-2023, 00:34:53,    225,    1.8,    6.5,   0.00,   0.00, 1006.3,    0.7, -999.0
26-12-2023, 00:35:04,    222,    1.7,    6.6,   0.00,   0.00, 1006.2,    0.5, -999.0
26-12-2023, 00:35:13,    249,    2.6,    6.5,   0.00,   0.00, 1006.2,    0.6, -999.0
26-12-2023, 00:35:23,    235,    2.0,    6.5,   0.00,   0.00, 1006.3,    0.6, -999.0
26-12-2023, 00:35:33,    209,    1.6,    6.6,   0.00,   0.00, 1006.3,    1.0, -999.0
26-12-2023, 00:35:44,    246,    1.4,    6.6,   0.00,   0.00, 1006.3,    0.9, -999.0
26-12-2023, 00:35:53,    272,    3.5,    6.6,   0.00,   0.00, 1006.3,    0.8, -999.0
26-12-2023, 00:36:03,    255,    3.0,    6.5,   0.00,   0.00, 1006.3,    0.6, -999.0
26-12-2023, 00:36:13,    237,    2.1,    6.5,   0.00,   0.00, 1006.3,    0.3, -999.0
26-12-2023, 00:36:23,    229,    2.3,    6.5,   0.00,   0.00, 1006.2,    0.7, -999.0
26-12-2023, 00:36:33,    233,    2.3,    6.5,   0.00,   0.00, 1006.2,    1.0, -999.0
26-12-2023, 00:36:43,    233,    3.4,    6.5,   0.00,   0.00, 1006.3,    0.3, -999.0
26-12-2023, 00:36:53,    246,    2.3,    6.5,   0.00,   0.00, 1006.3,    0.6, -999.0
26-12-2023, 00:37:03,    258,    2.1,    6.6,   0.00,   0.00, 1006.3,    1.1, -999.0
26-12-2023, 00:37:13,    250,    6.2,    6.5,   0.00,   0.00, 1006.3,    0.7, -999.0
26-12-2023, 00:37:23,    232,    4.4,    6.6,   0.00,   0.00, 1006.3,    0.3, -999.0
26-12-2023, 00:37:33,    234,    1.9,    6.6,   0.00,   0.00, 1006.3,    0.1, -999.0
26-12-2023, 00:37:43,    235,    0.5,    6.5,   0.00,   0.00, 1006.3,    0.5, -999.0
26-12-2023, 00:37:53,    235,    0.8,    6.5,   0.00,   0.00, 1006.2,    0.7, -999.0
26-12-2023, 00:38:03,    244,    3.0,    6.5,   0.00,   0.00, 1006.3,    0.4, -999.0
26-12-2023, 00:38:13,    241,    2.1,    6.5,   0.00,   0.00, 1006.3,    0.4, -999.0
26-12-2023, 00:38:23,    217,    1.7,    6.5,   0.00,   0.00, 1006.3,    1.0, -999.0
26-12-2023, 00:38:33,    235,    3.1,    6.6,   0.00,   0.00, 1006.3,    0.7, -999.0
26-12-2023, 00:38:43,    244,    3.7,    6.5,   0.00,   0.00, 1006.3,    0.7, -999.0
26-12-2023, 00:38:53,    281,    2.4,    6.5,   0.00,   0.00, 1006.3,    0.0, -999.0
26-12-2023, 00:39:03,    235,    1.3,    6.6,   0.00,   0.00, 1006.3,    0.0, -999.0
26-12-2023, 00:39:13,    203,    1.0,    6.5,   0.00,   0.00, 1006.2,    0.1, -999.0
26-12-2023, 00:39:23,    203,    0.0,    6.4,   0.00,   0.00, 1006.2,    0.3, -999.0
26-12-2023, 00:39:33,    203,    0.0,    6.4,   0.00,   0.00, 1006.2,    0.4, -999.0
26-12-2023, 00:39:43,    203,    0.7,    6.5,   0.00,   0.00, 1006.3,    0.6, -999.0
26-12-2023, 00:39:53,    235,    1.1,    6.4,   0.00,   0.00, 1006.2,    0.7, -999.0
26-12-2023, 00:40:03,    260,    1.3,    6.5,   0.00,   0.00, 1006.3,    0.4, -999.0
26-12-2023, 00:40:13,    256,    1.9,    6.5,   0.00,   0.00, 1006.3,    1.1, -999.0
26-12-2023, 00:40:23,    228,    3.0,    6.5,   0.00,   0.00, 1006.3,    0.2, -999.0
26-12-2023, 00:40:33,    235,    3.0,    6.5,   0.00,   0.00, 1006.3,    0.6, -999.0
26-12-2023, 00:40:43,    284,    4.4,    6.5,   0.00,   0.00, 1006.3,    0.4, -999.0
26-12-2023, 00:40:53,    257,    4.6,    6.5,   0.00,   0.00, 1006.2,    0.2, -999.0
26-12-2023, 00:41:03,    243,    2.2,    6.5,   0.00,   0.00, 1006.3,    1.0, -999.0
26-12-2023, 00:41:12,    219,    1.6,    6.5,   0.00,   0.00, 1006.3,    1.0, -999.0
26-12-2023, 00:41:23,    219,    2.0,    6.5,   0.00,   0.00, 1006.3,    0.6, -999.0
26-12-2023, 00:41:33,    225,    1.8,    6.5,   0.00,   0.00, 1006.3,    0.5, -999.0
26-12-2023, 00:41:43,    211,    1.2,    6.5,   0.00,   0.00, 1006.2,    1.0, -999.0
26-12-2023, 00:41:52,    231,    1.9,    6.5,   0.00,   0.00, 1006.3,    0.9, -999.0
26-12-2023, 00:42:03,    236,    1.6,    6.5,   0.00,   0.00, 1006.2,    0.7, -999.0
26-12-2023, 00:42:13,    236,    1.2,    6.5,   0.00,   0.00, 1006.3,    0.5, -999.0
26-12-2023, 00:42:22,    235,    0.2,    6.4,   0.00,   0.00, 1006.2,    0.6, -999.0
26-12-2023, 00:42:33,    235,    0.0,    6.4,   0.00,   0.00, 1006.1,    0.7, -999.0
26-12-2023, 00:42:43,    236,    0.7,    6.4,   0.00,   0.00, 1006.2,    0.5, -999.0
26-12-2023, 00:42:52,    236,    0.9,    6.5,   0.00,   0.00, 1006.3,    0.5, -999.0
26-12-2023, 00:43:02,    236,    0.1,    6.4,   0.00,   0.00, 1006.2,    0.3, -999.0
26-12-2023, 00:43:13,    236,    0.3,    6.4,   0.00,   0.00, 1006.2,    0.6, -999.0
26-12-2023, 00:43:22,    236,    1.1,    6.4,   0.00,   0.00, 1006.3,    0.5, -999.0
26-12-2023, 00:43:32,    226,    2.1,    6.4,   0.00,   0.00, 1006.3,    0.5, -999.0
26-12-2023, 00:43:42,    229,    2.4,    6.5,   0.00,   0.00, 1006.3,    0.6, -999.0
26-12-2023, 00:43:53,    224,    1.2,    6.5,   0.00,   0.00, 1006.3,    0.5, -999.0
26-12-2023, 00:44:02,    223,    0.4,    6.4,   0.00,   0.00, 1006.3,    0.5, -999.0
26-12-2023, 00:44:12,    217,    2.5,    6.4,   0.00,   0.00, 1006.3,    0.7, -999.0
26-12-2023, 00:44:22,    252,    3.2,    6.5,   0.00,   0.00, 1006.3,    0.5, -999.0
26-12-2023, 00:44:32,    244,    2.3,    6.4,   0.00,   0.00, 1006.3,    0.4, -999.0
26-12-2023, 00:44:42,    243,    3.4,    6.5,   0.00,   0.00, 1006.3,    0.6, -999.0
26-12-2023, 00:44:52,    264,    3.0,    6.5,   0.00,   0.00, 1006.3,    0.6, -999.0
26-12-2023, 00:45:02,    244,    0.8,    6.5,   0.00,   0.00, 1006.3,    0.6, -999.0
26-12-2023, 00:45:12,    232,    0.8,    6.5,   0.00,   0.00, 1006.3,   90.0, -999.0
26-12-2023, 00:45:22,    251,    2.4,    6.5,   0.00,   0.00, 1006.3,   99.0, -999.0
26-12-2023, 00:45:32,    234,    2.7,    6.5,   0.00,   0.00, 1006.3,   99.0, -999.0
26-12-2023, 00:45:42,    250,    3.3,    6.5,   0.00,   0.00, 1006.3,   99.0, -999.0
26-12-2023, 00:45:52,    258,    2.8,    6.5,   0.00,   0.00, 1006.3,   99.1, -999.0
26-12-2023, 00:46:02,    258,    3.7,    6.4,   0.00,   0.00, 1006.4,   99.0, -999.0
26-12-2023, 00:46:12,    257,    3.0,    6.5,   0.00,   0.00, 1006.4,   99.0, -999.0
26-12-2023, 00:46:22,    249,    2.1,    6.5,   0.00,   0.00, 1006.4,   99.0, -999.0
26-12-2023, 00:46:32,    242,    1.3,    6.5,   0.00,   0.00, 1006.4,   99.0, -999.0
26-12-2023, 00:46:42,    242,    1.5,    6.5,   0.00,   0.00, 1006.4,   99.0, -999.0
26-12-2023, 00:46:52,    242,    0.9,    6.4,   0.00,   0.00, 1006.4,   99.0, -999.0